Home > Weather > Dublin > Past weeks

Flag for Ireland Weather for the Past 2 Weeks in Dublin, Ireland

Now
37 °F

Passing clouds.


Feels Like: 26 °F
Forecast: 36 / 43 °F
Wind: 23 mph from Southwest

Location: Dublin Airport

Current Time: Feb 9, 2016 at 3:42:45 AM

Latest Report: Feb 9, 2016 at 3:00 AM


Visibility: N/A

Pressure: 29.09 "Hg

Humidity: 81%

Dew point: 32 °F

Location of DublinLocation

Historic Weather in Dublin — Graph

°F

Dublin Temperature Yesterday

Maximum temperature yesterday: 46 °F (at 12:30 PM)
Minimum temperature yesterday: 39 °F (at 4:00 AM)
Average temperature yesterday: 42 °F

High & Low Weather Summary for the Past Weeks

 TemperatureHumidityPressure
High57 °F (Jan 25, 5:30 AM)100% (Jan 26, 10:30 PM)30.30 "Hg (Jan 26, 10:30 PM)
Low36 °F (Jan 27, 9:30 PM)54% (Feb 1, 1:00 PM)28.56 "Hg (Feb 8, 6:30 AM)
Average45 °F83%29.61 "Hg
* Reported Jan 25 2:00 AM — Feb 9 2:30 AM, Dublin, Weather by CustomWeather, © 2016

Note: Actual official high and low records may vary slightly from our data, if they occured in-between our weather recording intervals... More about our weather records

Advertising

Dublin Weather History for the Previous 24 Hours

 ConditionsComfort  
Time TempWeatherWind HumidityBarometerVisibility
2:30 AM
Tue, Feb 9
37 °FPassing clouds.22 mph87%29.09 "HgN/A
2:00 AM37 °FPassing clouds.22 mph87%29.09 "HgN/A
1:00 AM39 °FPassing clouds.25 mph81%29.12 "HgN/A
12:30 AM39 °FPassing clouds.25 mph81%29.12 "HgN/A
12:00 AM39 °FPartly cloudy.25 mph87%29.12 "HgN/A
11:30 PM
Mon, Feb 8
39 °FPartly cloudy.28 mph81%29.12 "HgN/A
11:00 PM39 °FPartly cloudy.28 mph81%29.12 "HgN/A
10:00 PM39 °FSprinkles. Partly cloudy.28 mph87%29.12 "HgN/A
9:30 PM39 °FSprinkles. Partly cloudy.28 mph87%29.12 "HgN/A
9:00 PM41 °FSprinkles. Partly cloudy.30 mph81%29.09 "HgN/A
8:30 PM41 °FPassing clouds.33 mph81%29.09 "HgN/A
8:00 PM41 °FSprinkles. Partly cloudy.32 mph81%29.09 "HgN/A
7:30 PM39 °FPassing clouds.31 mph87%29.09 "HgN/A
7:00 PM39 °FPassing clouds.31 mph87%29.12 "HgN/A
6:30 PM41 °FSprinkles. Partly cloudy.29 mph87%29.09 "HgN/A
6:00 PM43 °FPassing clouds.30 mph81%29.09 "HgN/A
5:30 PM43 °FSprinkles. Partly cloudy.32 mph87%29.06 "Hg6 mi
5:00 PM43 °FBroken clouds.29 mph87%29.06 "HgN/A
4:30 PM43 °FSprinkles. Broken clouds.29 mph87%29.06 "Hg5 mi
4:00 PM45 °FBroken clouds.36 mph81%29.00 "HgN/A
3:30 PM45 °FSprinkles. Broken clouds.30 mph87%28.97 "HgN/A
3:00 PM45 °FSprinkles. Partly sunny.33 mph87%28.97 "HgN/A
2:30 PM46 °FBroken clouds.33 mph82%28.97 "HgN/A
2:00 PM45 °FBroken clouds.33 mph87%28.94 "HgN/A
1:30 PM46 °FBroken clouds.31 mph82%28.91 "HgN/A
1:00 PM46 °FBroken clouds.32 mph82%28.88 "HgN/A
12:30 PM46 °FBroken clouds.30 mph82%28.85 "HgN/A
12:00 PM45 °FSprinkles. Broken clouds.30 mph87%28.82 "HgN/A
11:30 AM45 °FSprinkles. Broken clouds.29 mph87%28.80 "HgN/A
11:00 AM45 °FBroken clouds.25 mph87%28.77 "HgN/A
10:30 AM43 °FSprinkles. Broken clouds.25 mph93%28.77 "HgN/A
10:00 AM43 °FSprinkles. Broken clouds.26 mph87%28.74 "HgN/A
9:30 AM43 °FSprinkles. Partly sunny.25 mph87%28.71 "HgN/A
9:00 AM43 °FSprinkles. Broken clouds.26 mph87%28.68 "HgN/A
8:30 AM43 °FBroken clouds.24 mph87%28.65 "HgN/A
8:00 AM43 °FBroken clouds.24 mph87%28.62 "HgN/A
7:30 AM43 °FPartly cloudy.24 mph87%28.59 "HgN/A
7:00 AM41 °FSprinkles. Partly cloudy.24 mph93%28.59 "HgN/A
6:30 AM41 °FSprinkles. Partly cloudy.24 mph93%28.56 "HgN/A
6:00 AM41 °FSprinkles. Partly cloudy.25 mph87%28.59 "HgN/A
5:30 AM41 °FPassing clouds.25 mph87%28.59 "HgN/A
5:00 AM41 °FSprinkles. Partly cloudy.28 mph87%28.59 "HgN/A
4:30 AM41 °FSprinkles. Partly cloudy.25 mph87%28.59 "HgN/A
4:00 AM39 °FSprinkles. Partly cloudy.32 mph93%28.62 "HgN/A
3:30 AM41 °FSprinkles. Partly cloudy.26 mph87%28.62 "HgN/A
3:00 AM41 °FSprinkles. Partly cloudy.30 mph87%28.62 "HgN/A
Weather by CustomWeather, © 2016

See weather overviewHow to use our weather pages